Voltar ao catálogo

CZ-6A DEB

AtivoPO
NORAD 60898·DEBRIS·🇨🇳 China

Lançado Aug 6, 2024 de Taiyuan Satellite Launch Center

Loading…

Próximas Passagens (próximas 24 horas)

TLE

AtualizadoSource: Space-Track

Época: Sep 14, 2026, 13:58 UTC

1 60898U 24140LD  26257.58234859  .00003419  00000-0  48526-3 0  9993
2 60898  88.6768 227.1307 0150491 201.5718 157.9118 14.69180132110641

Acompanhe CZ-6A DEB em tempo real com AllMySat

Download on the App Store